SCP
0 0 0 0 0 0 0 0 0 0 0 0 0 0 0 0 -0 -0 -0 -0 -0 0 0 0 0 -0 -0 0 0 0 0 0
0 0 0 0 0 0 0 0 0 0 0 0 0 0 0 0 0 -0 -0 -0 -0 -0 -0 0 0 0 0 0 0 0 0 0
0 0 0 0 0 0 0 0 0 0 0 0 0 0 0 0 0 0 -0 -0 -0 -0 -0 -0 0 0 0 0 0 0 0 0
0 0 0 0 0 0 0 0 0 0 0 0 0 0 0 0 0 0 -0 -0 -0 -0 -0 -0 -0 0 0 0 0 0 1 1
0 0 0 0 0 0 0 0 0 0 0 0 0 0 0 1 1 0 0 0 -0 -0 -0 -0 -0 0 0 0 0 0 0 0
0 0 0 0 0 0 0 0 0 0 0 0 0 0 0 1 2 0 0 0 0 0 0 0 0 0 0 0 0 0 0 0
0 0 0 0 0 0 0 0 0 0 0 0 0 0 2 1 1 1 1 1 1 0 0 0 0 0 0 0 0 -0 -0 0
0 0 0 0 0 0 0 0 0 0 0 0 0 2 2 2 2 3 1 2 3 2 1 1 1 0 0 0 0 0 0 -0
0 0 0 0 0 0 0 0 0 0 0 0 2 2 1 1 1 0 0 0 0 1 2 3 2 1 0 0 1 1 1 1
0 0 0 0 0 0 0 0 0 0 1 1 1 0 0 0 -0 -0 0 0 0 0 0 0 1 2 2 1 1 1 1 1
0 0 0 0 0 0 0 0 1 1 1 0 -0 0 0 0 0 -0 0 0 0 0 0 0 0 1 2 2 2 1 1 1
0 0 0 0 2 2 1 0 1 1 1 0 0 0 0 0 0 -0 0 0 0 0 -0 0 0 0 1 1 2 1 3 4
0 0 0 0 0 1 1 1 1 1 1 1 1 2 0 0 0 -0 0 0 0 0 0 0 0 0 0 1 0 1 2 2
0 0 0 0 0 1 0 2 1 1 1 1 0 0 0 0 0 0 0 0 0 0 0 0 0 0 0 0 0 0 0 1
1 0 0 0 0 0 0 0 0 0 0 0 0 0 0 0 0 0 0 0 0 0 0 0 0 0 0 0 0 0 0 1
1 0 0 0 0 0 0 1 0 0 0 0 0 0 0 0 0 0 0 0 0 0 0 0 0 0 0 0 0 0 1 1
0 0 0 0 0 0 0 0 0 0 0 0 0 0 0 0 0 0 0 0 0 0 0 0 0 0 0 0 0 0 0 0
1 0 0 0 0 0 0 0 0 0 0 0 0 0 0 0 0 0 0 0 0 0 0 0 0 0 0 0 0 0 0 0
0 0 0 0 0 0 0 0 0 0 0 0 0 0 0 0 0 0 0 0 0 0 0 0 0 0 0 0 0 0 0 0
Wind_Speed_500mb
51 47 48 50 49 50 49 37 26 30 36 21 15 18 18 26 51 62 65 63 68 72 73 72 72 72 67 64 61 60 55 52
60 46 51 57 42 42 36 46 42 35 24 27 38 24 22 27 34 47 59 60 63 68 73 71 70 69 66 63 60 58 57 57
48 50 52 41 45 36 42 40 35 33 27 19 10 28 22 16 26 40 52 61 63 64 69 69 69 69 68 65 61 60 61 58
40 37 51 46 48 51 30 48 34 34 24 18 37 28 15 13 9 13 47 59 61 60 61 66 68 67 67 66 64 63 64 63
41 41 33 42 53 49 46 37 46 33 32 22 20 20 17 19 6 10 27 46 56 58 58 60 64 66 67 68 64 58 62 66
34 37 36 50 48 55 50 38 37 39 38 27 29 32 19 21 14 7 10 35 43 50 52 55 58 64 66 66 63 62 61 62
52 52 45 42 49 53 50 51 48 41 39 38 27 25 33 24 20 18 14 14 4 36 39 44 47 56 58 58 59 59 65 67
42 42 52 44 38 51 58 55 50 50 43 31 18 45 36 25 27 30 25 22 24 17 27 30 36 42 45 49 52 54 59 63
29 34 41 47 44 35 40 52 46 43 41 25 36 35 28 23 24 22 16 15 8 12 12 6 16 34 38 40 44 47 51 55
32 33 49 31 40 43 36 32 42 46 12 29 31 33 30 24 21 19 14 6 7 5 9 14 15 11 28 36 37 39 41 42
30 34 25 16 9 19 26 26 13 21 20 21 26 28 31 20 18 14 9 6 7 9 9 13 14 16 28 32 34 35 36 35
32 38 20 33 26 18 11 10 9 5 13 8 9 14 10 15 14 14 12 8 6 12 5 6 7 23 26 35 39 38 40 33
32 28 5 20 35 24 24 5 20 15 13 9 5 18 31 21 14 12 13 16 17 16 10 16 7 11 21 30 31 39 41 41
35 38 30 37 8 18 15 25 19 19 7 22 25 28 26 20 17 14 13 13 13 13 14 17 17 12 18 13 15 22 31 30
9 5 14 21 17 15 26 10 21 22 23 27 28 24 20 16 15 12 12 12 12 13 17 16 14 18 14 12 17 11 8 9
8 16 14 19 12 15 28 21 25 26 28 27 30 24 22 18 16 16 15 16 16 18 20 20 18 17 16 16 17 10 11 13
6 9 12 17 16 13 29 28 31 31 29 30 32 27 22 18 16 15 12 12 11 11 12 15 17 22 23 21 20 16 13 11
5 20 15 10 6 10 24 27 20 27 27 26 23 21 19 17 14 11 10 10 10 9 9 9 7 7 6 9 14 15 12 11
4 8 14 19 9 11 13 19 21 20 20 18 16 14 13 9 9 5 4 8 10 11 13 13 14 13 14 15 15 15 6 3
Wind_Direction_500mb
230 220 238 223 223 240 252 242 255 214 197 170 146 198 170 199 181 191 197 201 197 197 198 198 198 197 196 198 204 204 207 211
215 213 228 241 216 224 240 247 248 239 200 228 181 203 193 184 186 192 196 200 199 200 197 201 202 201 200 202 204 202 203 211
208 200 219 219 234 221 237 234 246 244 233 183 133 172 164 181 199 198 197 199 201 200 199 200 202 203 203 203 204 204 203 208
227 210 216 235 215 233 232 228 240 257 251 207 177 141 139 216 24 274 200 200 199 198 199 198 202 203 204 204 206 208 208 204
250 197 203 228 241 232 234 238 230 229 241 99 87 80 116 62 37 248 227 196 194 195 196 196 200 202 204 203 208 208 209 210
244 230 211 216 236 237 231 236 240 226 232 167 164 154 137 89 46 91 204 185 189 191 191 191 197 200 201 204 207 209 207 209
259 268 258 214 216 237 236 236 237 232 231 237 196 112 93 93 74 89 135 159 291 185 187 191 196 201 202 205 206 206 213 210
263 255 258 269 243 212 227 238 239 246 246 215 132 93 83 73 91 63 35 37 37 55 178 193 197 203 205 205 206 206 209 211
251 245 255 246 239 237 223 227 237 235 244 253 97 86 69 69 73 67 40 12 49 54 45 44 182 211 208 207 207 208 208 210
274 260 232 235 223 242 244 230 227 232 87 65 91 92 82 71 84 76 68 36 25 230 260 230 200 193 200 207 205 206 206 210
263 255 256 187 172 227 232 192 38 63 83 102 119 105 64 70 84 97 100 88 89 108 342 267 224 221 193 183 196 199 203 207
261 262 201 315 67 5 327 194 91 42 109 134 184 245 112 111 95 96 99 98 74 112 186 147 188 208 184 186 188 189 184 199
235 261 149 37 356 329 214 83 106 135 159 175 229 49 127 125 120 116 108 102 93 100 127 95 83 117 172 193 191 189 190 203
240 245 244 3 325 317 346 359 69 74 110 106 106 113 120 128 123 115 101 95 97 95 90 86 80 87 89 131 178 206 213 213
348 15 58 26 26 4 333 293 85 87 95 113 115 116 117 120 116 103 93 83 78 84 77 67 83 82 107 112 97 102 135 177
234 66 67 60 6 29 44 73 101 98 104 111 108 104 106 107 101 93 86 84 81 76 74 72 70 68 69 86 78 73 86 91
148 100 116 68 40 38 63 86 87 99 101 101 97 96 97 93 87 90 78 58 56 63 62 58 59 63 61 61 82 77 78 81
355 116 81 92 42 60 60 82 95 97 91 89 94 99 109 103 93 81 64 51 38 17 2 353 2 5 25 67 62 66 65 71
142 83 113 130 126 106 97 104 88 86 76 82 76 77 68 53 27 28 34 4 2 359 347 343 346 338 337 334 311 293 305 359
Wind_Speed_850mb
51 47 48 50 49 50 49 37 26 30 36 21 15 18 18 26 51 62 65 63 68 72 73 72 72 72 67 64 61 60 55 52
60 46 51 57 42 42 36 46 42 35 24 27 38 24 22 27 34 47 59 60 63 68 73 71 70 69 66 63 60 58 57 57
48 50 52 41 45 36 42 40 35 33 27 19 10 28 22 16 26 40 52 61 63 64 69 69 69 69 68 65 61 60 61 58
40 37 51 46 48 51 30 48 34 34 24 18 37 28 15 13 9 13 47 59 61 60 61 66 68 67 67 66 64 63 64 63
41 41 33 42 53 49 46 37 46 33 32 22 20 20 17 19 6 10 27 46 56 58 58 60 64 66 67 68 64 58 62 66
34 37 36 50 48 55 50 38 37 39 38 27 29 32 19 21 14 7 10 35 43 50 52 55 58 64 66 66 63 62 61 62
52 52 45 42 49 53 50 51 48 41 39 38 27 25 33 24 20 18 14 14 4 36 39 44 47 56 58 58 59 59 65 67
42 42 52 44 38 51 58 55 50 50 43 31 18 45 36 25 27 30 25 22 24 17 27 30 36 42 45 49 52 54 59 63
29 34 41 47 44 35 40 52 46 43 41 25 36 35 28 23 24 22 16 15 8 12 12 6 16 34 38 40 44 47 51 55
32 33 49 31 40 43 36 32 42 46 12 29 31 33 30 24 21 19 14 6 7 5 9 14 15 11 28 36 37 39 41 42
30 34 25 16 9 19 26 26 13 21 20 21 26 28 31 20 18 14 9 6 7 9 9 13 14 16 28 32 34 35 36 35
32 38 20 33 26 18 11 10 9 5 13 8 9 14 10 15 14 14 12 8 6 12 5 6 7 23 26 35 39 38 40 33
32 28 5 20 35 24 24 5 20 15 13 9 5 18 31 21 14 12 13 16 17 16 10 16 7 11 21 30 31 39 41 41
35 38 30 37 8 18 15 25 19 19 7 22 25 28 26 20 17 14 13 13 13 13 14 17 17 12 18 13 15 22 31 30
9 5 14 21 17 15 26 10 21 22 23 27 28 24 20 16 15 12 12 12 12 13 17 16 14 18 14 12 17 11 8 9
8 16 14 19 12 15 28 21 25 26 28 27 30 24 22 18 16 16 15 16 16 18 20 20 18 17 16 16 17 10 11 13
6 9 12 17 16 13 29 28 31 31 29 30 32 27 22 18 16 15 12 12 11 11 12 15 17 22 23 21 20 16 13 11
5 20 15 10 6 10 24 27 20 27 27 26 23 21 19 17 14 11 10 10 10 9 9 9 7 7 6 9 14 15 12 11
4 8 14 19 9 11 13 19 21 20 20 18 16 14 13 9 9 5 4 8 10 11 13 13 14 13 14 15 15 15 6 3
Wind_Direction_850mb
230 220 238 223 223 240 252 242 255 214 197 170 146 198 170 199 181 191 197 201 197 197 198 198 198 197 196 198 204 204 207 211
215 213 228 241 216 224 240 247 248 239 200 228 181 203 193 184 186 192 196 200 199 200 197 201 202 201 200 202 204 202 203 211
208 200 219 219 234 221 237 234 246 244 233 183 133 172 164 181 199 198 197 199 201 200 199 200 202 203 203 203 204 204 203 208
227 210 216 235 215 233 232 228 240 257 251 207 177 141 139 216 24 274 200 200 199 198 199 198 202 203 204 204 206 208 208 204
250 197 203 228 241 232 234 238 230 229 241 99 87 80 116 62 37 248 227 196 194 195 196 196 200 202 204 203 208 208 209 210
244 230 211 216 236 237 231 236 240 226 232 167 164 154 137 89 46 91 204 185 189 191 191 191 197 200 201 204 207 209 207 209
259 268 258 214 216 237 236 236 237 232 231 237 196 112 93 93 74 89 135 159 291 185 187 191 196 201 202 205 206 206 213 210
263 255 258 269 243 212 227 238 239 246 246 215 132 93 83 73 91 63 35 37 37 55 178 193 197 203 205 205 206 206 209 211
251 245 255 246 239 237 223 227 237 235 244 253 97 86 69 69 73 67 40 12 49 54 45 44 182 211 208 207 207 208 208 210
274 260 232 235 223 242 244 230 227 232 87 65 91 92 82 71 84 76 68 36 25 230 260 230 200 193 200 207 205 206 206 210
263 255 256 187 172 227 232 192 38 63 83 102 119 105 64 70 84 97 100 88 89 108 342 267 224 221 193 183 196 199 203 207
261 262 201 315 67 5 327 194 91 42 109 134 184 245 112 111 95 96 99 98 74 112 186 147 188 208 184 186 188 189 184 199
235 261 149 37 356 329 214 83 106 135 159 175 229 49 127 125 120 116 108 102 93 100 127 95 83 117 172 193 191 189 190 203
240 245 244 3 325 317 346 359 69 74 110 106 106 113 120 128 123 115 101 95 97 95 90 86 80 87 89 131 178 206 213 213
348 15 58 26 26 4 333 293 85 87 95 113 115 116 117 120 116 103 93 83 78 84 77 67 83 82 107 112 97 102 135 177
234 66 67 60 6 29 44 73 101 98 104 111 108 104 106 107 101 93 86 84 81 76 74 72 70 68 69 86 78 73 86 91
148 100 116 68 40 38 63 86 87 99 101 101 97 96 97 93 87 90 78 58 56 63 62 58 59 63 61 61 82 77 78 81
355 116 81 92 42 60 60 82 95 97 91 89 94 99 109 103 93 81 64 51 38 17 2 353 2 5 25 67 62 66 65 71
142 83 113 130 126 106 97 104 88 86 76 82 76 77 68 53 27 28 34 4 2 359 347 343 346 338 337 334 311 293 305 359